[[{"header":{"parameterUnit":"m.s-1","parameterCategory":1,"la1":30.2992,"la2":30.254,"lo1":-89.0895,"lo2":-89.0443,"dy":0.0025,"dx":0.0025,"nx":19,"ny":19,"refTime":"2026-03-27T03:00:00:Z","depth":0,"parameterNumber":2,"parameterNumberName":"U-component_of_WINDS"},"data":[0,0,0,-4.9445,-4.9449,-4.9619,-4.9619,-4.9858,-4.986,0,0,0,0,0,0,0,0,0,0,0,-4.9408,-4.941,-4.9445,-4.9449,-4.9619,-4.9619,-4.9857,-4.986,0,0,0,0,0,0,0,0,0,0,0,-4.9407,-4.941,-4.9413,-4.945,-4.9619,-4.9619,-4.9857,-4.9721,0,0,0,0,0,0,0,0,0,0,-4.9553,-4.9532,-4.9409,-4.9413,-4.9451,-4.9619,-4.962,-4.9714,-4.973,-4.979,0,-4.9848,0,-4.9858,-4.9877,-4.9878,0,0,0,-4.9439,-4.952,-4.9553,-4.9413,-4.9453,-4.9618,-4.9539,-4.9722,-4.974,-4.9811,-4.9852,-4.986,-4.9862,-4.9879,-4.988,-5.0266,-5.0268,0,0,-4.943,-4.9446,-4.9541,-4.9565,-4.9541,-4.9534,-4.9545,-4.9733,-4.9778,-4.9852,-4.9865,-4.9866,-4.9881,-4.9883,-5.0264,-5.0267,0,0,0,-4.941,-4.944,-4.9468,-4.9556,-4.9585,-4.9539,-4.9552,-4.977,-4.9777,-4.9867,-4.9869,-4.9882,-4.9886,-5.0261,-5.0265,-5.0395,0,0,0,-4.9404,-4.9428,-4.9465,-4.9477,-4.9582,-4.968,-4.9585,-4.9765,-4.9785,-4.9868,-4.9882,-4.9888,-5.0259,-5.0263,-5.0386,-5.0454,0,0,0,-4.9393,-4.9427,-4.9456,-4.9477,-4.9551,-4.9676,-4.9694,-4.9769,-4.9787,-4.9879,-4.9889,-5.0257,-5.0262,-5.0378,-5.0441,-5.0561,0,0,0,-4.9386,-4.9569,-4.9459,-4.9663,-4.955,-4.9755,-4.9693,-4.9845,-4.9939,-4.9884,-5.0259,-5.0265,-5.0375,-5.0433,-5.0553,-5.0667,-5.0715,0,0,-4.9626,-4.9598,-4.9718,-4.9624,-4.9853,-4.9728,-4.9976,-5.0046,-5.0039,-5.0191,-5.02,-5.0389,-5.044,-5.0559,-5.098,-5.1018,0,0,0,-4.9799,-4.9886,-4.9943,-5.0033,-5.0091,-5.0147,-5.0177,-5.0203,-5.0331,-5.0121,-5.0463,-5.0493,-5.0563,-5.0617,-5.065,-5.0709,-5.029,-5.0289,-5.0289,-5.0165,-5.0146,-5.0342,-5.0344,-5.0433,-5.0462,-5.0532,-5.0571,-5.0526,-5.0608,-5.0653,-5.091,-5.0974,-5.0999,-5.106,-5.071,-5.0711,-5.0711,-5.0712,-5.0516,-5.0636,-5.0571,-5.0739,-5.0717,-5.0857,-5.0892,-5.0856,-5.0983,-5.0875,-5.0935,-5.082,-5.1042,-5.1095,-5.0721,-5.072,-5.0718,-5.0717,-5.0717,-5.0755,-5.0809,-5.0837,-5.0966,-5.1067,-5.1061,-5.1187,-5.1162,-5.114,-5.12,-5.1246,-5.1243,-5.1239,-5.1223,-5.1224,-5.1225,-5.1225,-5.1226,-5.1227,-5.0992,-5.102,-5.1129,-5.1205,-5.126,-5.1328,-5.1358,-5.1412,-5.1464,-5.1436,-5.1437,-5.1385,-5.1066,-5.0988,-5.124,-5.1238,-5.1236,-5.1235,-5.1234,-5.1359,-5.1272,-5.1441,-5.1496,-5.1583,-5.1685,-5.1651,-5.1761,-5.1801,-5.1864,-5.1798,-5.1566,-5.1536,-5.151,-5.1445,-5.1801,-5.1801,-5.1801,-5.1801,-5.1562,-5.1544,-5.171,-5.18,-5.1884,-5.1871,-5.2061,-5.2086,-5.2098,-5.2121,-5.2066,-5.1977,-5.1951,-5.1936,-5.1901,-5.184,-5.2288,-5.2288,-5.2289,-5.1787,-5.1776,-5.1943,-5.1954,-5.202,-5.2077,-5.2255,-5.236,-5.2355,-5.2308,-5.214,-5.2119,-5.1975,-5.1929,-5.188,-5.1825,-5.1713,0,0]},{"header":{"parameterUnit":"m.s-1","parameterCategory":1,"la1":30.2992,"la2":30.254,"lo1":-89.0895,"lo2":-89.0443,"dy":0.0025,"dx":0.0025,"nx":19,"ny":19,"refTime":"2026-03-27T03:00:00:Z","depth":0,"parameterNumber":3,"parameterNumberName":"V-component_of_WINDS"},"data":[0,0,0,-3.8414,-3.8414,-3.8417,-3.8416,-3.8432,-3.8433,0,0,0,0,0,0,0,0,0,0,0,-3.8422,-3.8422,-3.8414,-3.8414,-3.8417,-3.8416,-3.8432,-3.8433,0,0,0,0,0,0,0,0,0,0,0,-3.8422,-3.8422,-3.8423,-3.8414,-3.8417,-3.8416,-3.8432,-3.8426,0,0,0,0,0,0,0,0,0,0,-3.8421,-3.8438,-3.8422,-3.8423,-3.8414,-3.8417,-3.8416,-3.8425,-3.8426,-3.8437,0,-3.8451,0,-3.8442,-3.8435,-3.8435,0,0,0,-3.8407,-3.8437,-3.843,-3.8423,-3.8414,-3.8417,-3.8413,-3.8425,-3.8427,-3.8438,-3.8451,-3.8451,-3.8442,-3.8435,-3.8435,-3.8523,-3.8524,0,0,-3.8407,-3.8427,-3.8429,-3.8431,-3.8433,-3.8413,-3.8414,-3.8426,-3.844,-3.8451,-3.8451,-3.8443,-3.8435,-3.8435,-3.8523,-3.8524,0,0,0,-3.8411,-3.8428,-3.8419,-3.843,-3.843,-3.8414,-3.8414,-3.8439,-3.8435,-3.8451,-3.8443,-3.8435,-3.8436,-3.8522,-3.8523,-3.8578,0,0,0,-3.8411,-3.843,-3.842,-3.8432,-3.843,-3.8435,-3.8428,-3.8434,-3.8435,-3.8443,-3.8435,-3.8436,-3.8521,-3.8523,-3.8575,-3.86,0,0,0,-3.8419,-3.8431,-3.8434,-3.8433,-3.8435,-3.8434,-3.8431,-3.8434,-3.843,-3.8435,-3.8436,-3.8521,-3.8522,-3.8572,-3.8595,-3.8628,0,0,0,-3.8433,-3.8484,-3.8436,-3.849,-3.8435,-3.8469,-3.843,-3.8455,-3.8465,-3.8435,-3.8521,-3.8523,-3.8571,-3.8592,-3.8625,-3.8657,-3.8674,0,0,-3.8509,-3.8494,-3.8524,-3.8481,-3.8528,-3.8467,-3.8523,-3.8513,-3.8495,-3.8515,-3.8516,-3.8576,-3.8595,-3.8627,-3.876,-3.8773,0,0,0,-3.8555,-3.8577,-3.8585,-3.8596,-3.859,-3.8586,-3.8566,-3.8562,-3.8577,-3.851,-3.8597,-3.8608,-3.8625,-3.864,-3.8651,-3.8664,-3.8531,-3.8531,-3.8531,-3.8691,-3.8665,-3.8712,-3.8685,-3.8697,-3.8674,-3.868,-3.8671,-3.8642,-3.8663,-3.8668,-3.8751,-3.8769,-3.8777,-3.8791,-3.8684,-3.8685,-3.8685,-3.8685,-3.8798,-3.8824,-3.8783,-3.8814,-3.8785,-3.881,-3.879,-3.8768,-3.8786,-3.8746,-3.876,-3.8717,-3.8792,-3.8803,-3.8689,-3.8688,-3.8688,-3.8687,-3.8687,-3.8883,-3.889,-3.8885,-3.8896,-3.8908,-3.8879,-3.8898,-3.8872,-3.8847,-3.8861,-3.8862,-3.8861,-3.8855,-3.8864,-3.8864,-3.8865,-3.8865,-3.8865,-3.8865,-3.8972,-3.8964,-3.8983,-3.898,-3.8982,-3.8982,-3.8959,-3.8961,-3.8955,-3.8934,-3.8934,-3.8901,-3.8806,-3.8781,-3.8869,-3.8869,-3.8868,-3.8868,-3.8867,-3.9087,-3.9056,-3.9086,-3.9089,-3.9081,-3.9093,-3.9059,-3.9064,-3.9061,-3.907,-3.9034,-3.8969,-3.8952,-3.8943,-3.8922,-3.9042,-3.9042,-3.9042,-3.9042,-3.9156,-3.9145,-3.9168,-3.9173,-3.9175,-3.9147,-3.918,-3.9162,-3.9139,-3.9135,-3.9114,-3.9085,-3.9077,-3.9064,-3.9053,-3.9033,-3.9178,-3.9178,-3.9178,-3.9224,-3.9212,-3.9245,-3.9222,-3.9214,-3.9207,-3.9236,-3.9242,-3.9209,-3.9183,-3.913,-3.9125,-3.9077,-3.9064,-3.9035,-3.9018,-3.898,0,0]}]]